Home   Weather   Lindlar   Past weeks

Flag for Germany Past Weather in Lindlar, North Rhine-Westphalia, Germany — Yesterday and Last 2 Weeks

Now
48 °F

Partly sunny.


Feels Like: 43 °F
Forecast: 31 / 55 °F
Wind: 12 mph from Northwest

Location: Koeln / Bonn

Current Time: Apr 23, 2017 at 6:14:53 pm

Latest Report: Apr 23, 2017 at 5:20 pm


Visibility: N/A

Pressure: 30.24 "Hg

Humidity: 54%

Dew Point: 32 °F

Location of LindlarLocation

Past Weather in Lindlar — Graph

°F

Lindlar Temperature Yesterday

Maximum temperature yesterday: 52 °F (at 12:20 am)
Minimum temperature yesterday: 43 °F (at 7:20 am)
Average temperature yesterday: 48 °F

High & Low Weather Summary for the Past Weeks

 TemperatureHumidityPressure
High73 °F (Apr 9, 4:20 pm)100% (Apr 9, 3:50 am)30.63 "Hg (Apr 9, 3:50 am)
Low25 °F (Apr 20, 6:20 am)25% (Apr 9, 6:50 pm)29.92 "Hg (Apr 12, 6:20 pm)
Average46 °F69%30.20 "Hg
* Reported Apr 8 5:20 pm — Apr 23 5:20 pm, Lindlar, Weather by CustomWeather, © 2017

Note: Actual official high and low records may vary slightly from our data, if they occured in-between our weather recording intervals... More about our weather records

Advertising

Lindlar Weather History for the Previous 24 Hours

Scroll right to see more
 ConditionsComfort  
Time TempWeatherWind HumidityBarometerVisibility
5:20 pm
Sun, Apr 23
48 °FPartly sunny.12 mph54%30.24 "HgN/A
4:50 pm48 °FBroken clouds.8 mph54%30.24 "HgN/A
4:20 pm48 °FBroken clouds.10 mph54%30.24 "HgN/A
3:20 pm50 °FScattered clouds.10 mph50%30.27 "HgN/A
2:50 pm52 °FScattered clouds.10 mph47%30.27 "HgN/A
2:20 pm48 °FBroken clouds.13 mph50%30.27 "HgN/A
1:50 pm48 °FBroken clouds.9 mph50%30.27 "HgN/A
1:20 pm48 °FBroken clouds.9 mph50%30.30 "HgN/A
12:50 pm48 °FBroken clouds.10 mph50%30.30 "HgN/A
12:20 pm46 °FBroken clouds.12 mph53%30.30 "HgN/A
11:50 am46 °FPartly sunny.9 mph53%30.30 "HgN/A
11:20 am45 °FScattered clouds.9 mph61%30.30 "HgN/A
10:50 am45 °FScattered clouds.9 mph61%30.30 "HgN/A
10:20 am45 °FScattered clouds.8 mph71%30.30 "HgN/A
9:50 am43 °FPartly sunny.9 mph76%30.30 "HgN/A
9:20 am43 °FScattered clouds.7 mph76%30.30 "HgN/A
8:50 am41 °FBroken clouds.7 mph81%30.30 "HgN/A
8:20 am41 °FPartly sunny.5 mph81%30.30 "HgN/A
7:50 am39 °FPartly sunny.2 mph81%30.27 "HgN/A
7:20 am37 °FPartly sunny.3 mph87%30.27 "HgN/A
6:50 am34 °FPartly sunny.3 mph93%30.27 "HgN/A
6:20 am36 °FClear.1 mph87%30.27 "Hg10 mi
5:50 am36 °FPassing clouds.5 mph87%30.27 "HgN/A
5:20 am34 °FClear.6 mph87%30.27 "Hg10 mi
4:50 am36 °FPassing clouds.5 mph87%30.27 "HgN/A
4:20 am37 °FPassing clouds.6 mph81%30.27 "HgN/A
3:53 am37 °FPassing clouds.6 mph81%30.27 "HgN/A
3:50 am36 °FPassing clouds.6 mph87%30.27 "HgN/A
3:20 am37 °FPassing clouds.7 mph81%30.27 "HgN/A
2:50 am39 °FPassing clouds.8 mph75%30.27 "HgN/A
2:20 am39 °FPassing clouds.9 mph75%30.27 "HgN/A
1:50 am39 °FPassing clouds.7 mph75%30.27 "HgN/A
1:20 am41 °FPassing clouds.6 mph70%30.27 "HgN/A
12:50 am43 °FPassing clouds.7 mph66%30.27 "HgN/A
12:20 am43 °FPassing clouds.8 mph66%30.27 "HgN/A
11:50 pm
Sat, Apr 22
43 °FClear.8 mph66%30.27 "Hg10 mi
11:20 pm43 °FClear.13 mph66%30.27 "Hg10 mi
10:50 pm45 °FPartly cloudy.14 mph61%30.24 "HgN/A
10:20 pm45 °FPartly cloudy.14 mph57%30.24 "HgN/A
9:50 pm45 °FPassing clouds.13 mph57%30.24 "HgN/A
9:20 pm46 °FPassing clouds.10 mph53%30.24 "HgN/A
8:50 pm46 °FPartly cloudy.12 mph53%30.24 "HgN/A
8:20 pm46 °FPartly sunny.10 mph62%30.24 "HgN/A
7:50 pm48 °FSprinkles. Broken clouds.15 mph58%30.24 "HgN/A
7:20 pm48 °FSprinkles. Broken clouds.15 mph54%30.21 "HgN/A
6:50 pm48 °FBroken clouds.17 mph54%30.24 "HgN/A
6:27 pm50 °FSprinkles. Broken clouds.16 mph50%30.21 "HgN/A
Weather by CustomWeather, © 2017

See weather overviewHow to use our weather pages